Simultaneous Nadir Overpasses (SNOs) Predictions

Prediction of SNOs between GOES-15 and NOAA-20 Satellite Orbit:

Table of predicted SNOs for the next 14.0 days since TLE Epoch: 8/30/2024
Index Date Time (GOES-15) GOES-15 Lat,Lon NOAA-20 Lat,Lon Distance(km) Time Diff (sec)
1 09/01/2024 09:26:21 -0.39, 61.48 -0.87, 59.21 257.30 80
2 09/02/2024 09:10:15 -0.39, 61.46 0.13, 63.75 261.07 80
3 09/03/2024 21:32:00 0.39, 61.51 1.06, 58.49 343.70 80
4 09/04/2024 21:10:34 0.39, 61.50 0.06, 63.03 173.88 80
5 09/06/2024 09:32:28 -0.38, 61.43 -1.21, 57.73 422.43 80
6 09/07/2024 09:16:22 -0.38, 61.42 -0.21, 62.26 95.72 80
7 09/09/2024 21:16:40 0.38, 61.46 0.37, 61.54 8.25 80
8 09/12/2024 09:19:47 -0.37, 61.42 -0.53, 60.78 73.53 80
9 09/13/2024 09:03:41 -0.37, 61.42 0.49, 65.31 443.65 80
